Powrót do katalogu

SL-14 DEB

AktywnyPO
NORAD 17844·DEBRIS·🇷🇺 Russia

Wystrzelony Dec 18, 1986 z Plesetsk Cosmodrome

Loading…

Następne Przeloty (najbliższe 24 godziny)

TLE

ŚwieżeSource: Space-Track

Epoka: Sep 13, 2026, 07:43 UTC

1 17844U 86101K   26256.32193002  .00000689  00000-0  37334-3 0  9997
2 17844  82.5083 214.2739 0018146   4.4842 148.7012 14.11167881 30590

Śledź SL-14 DEB w czasie rzeczywistym z AllMySat

Download on the App Store